^^
Datos históricos de la estación: Murcia-Puente Tocinos
Diario Informe para Marzo 25, 2019 Unidades:  Inglés    Métrico   Ambas
Diario Semanal Mensual Anual Configurable
  Máximo: Mínimo: Media:
Temperatura: 72 °F 48.9 °F 59.9 °F
Punto de rocio: 44.4 °F 33.3 °F 39 °F
Humedad: 66% 26% 48%
Velocidad viento: 10.7mph 0mph 4.8mph
Racha viento: 17.3mph - -
Viento- - SE
Presión: 30.1 in 30 in -
Precipitación: 0 in    
Historical Graphs
 
 
Tabla de datos para Marzo 25, 2019
Hora Temperatura Punto de rocio Presión Viento Velocidad viento Racha viento Humedad Intensidad lluvia(por hora) Nubes
00:04 54.7 °F 41.9 °F 30.1 in Calm     62% 0 in CLR
00:10 54.7 °F 41.9 °F 30.1 in Calm     62% 0 in CLR
00:14 54.5 °F 42.3 °F 30.1 in Calm     63% 0 in CLR
00:20 54.3 °F 42.1 °F 30.1 in Calm     63% 0 in CLR
00:25 54.3 °F 41.5 °F 30.1 in Calm     62% 0 in CLR
00:29 54.1 °F 41.4 °F 30.1 in Calm     62% 0 in CLR
00:35 54.1 °F 41.4 °F 30.1 in Calm     62% 0 in CLR
00:39 54 °F 41.2 °F 30.1 in Calm     62% 0 in CLR
00:45 54 °F 40.8 °F 30.1 in Calm   5 mph 61% 0 in CLR
00:49 53.8 °F 40.6 °F 30.1 in ESE 2.4 mph 4.6 mph 61% 0 in CLR
00:55 53.4 °F 40.3 °F 30.1 in SE 2 mph 5 mph 61% 0 in CLR
00:59 53.4 °F 40.3 °F 30.1 in SSE 2.9 mph 4.6 mph 61% 0 in CLR
01:05 53.4 °F 40.3 °F 30.1 in SSE 2.9 mph 6.9 mph 61% 0 in CLR
01:10 53.4 °F 40.3 °F 30.1 in SSE 3 mph 7 mph 61% 0 in CLR
01:15 53.2 °F 40.3 °F 30.1 in SSE 3 mph 6 mph 61% 0 in CLR
01:20 53.2 °F 40.1 °F 30.1 in SSE 5 mph 6 mph 61% 0 in CLR
01:25 53.4 °F 40.3 °F 30.1 in South 4 mph 4.7 mph 61% 0 in CLR
01:29 53.4 °F 40.3 °F 30.1 in South 3.1 mph 3.5 mph 61% 0 in CLR
01:35 53.4 °F 40.6 °F 30.1 in SSW 3 mph 5 mph 62% 0 in CLR
01:39 53.2 °F 40.5 °F 30.1 in SW 2.9 mph 3.5 mph 62% 0 in CLR
01:45 53.1 °F 40.8 °F 30.1 in SW 2 mph 3 mph 63% 0 in CLR
01:50 53.1 °F 40.8 °F 30.1 in SW 2 mph 3 mph 63% 0 in CLR
01:55 53.1 °F 40.8 °F 30.1 in SW 1.8 mph   63% 0 in CLR
02:00 53.1 °F 40.8 °F 30.1 in Calm   5 mph 63% 0 in CLR
02:05 52.9 °F 40.3 °F 30.1 in Calm   3.5 mph 62% 0 in CLR
02:09 52.9 °F 40.3 °F 30.1 in South 2.9 mph 4.6 mph 62% 0 in CLR
02:15 52.5 °F 39.9 °F 30.1 in South 2 mph 6 mph 62% 0 in CLR
02:19 52.7 °F 39.9 °F 30.1 in SSW 3.6 mph 5.8 mph 62% 0 in CLR
02:25 52.7 °F 39.6 °F 30.1 in SSW 3 mph 6 mph 61% 0 in CLR
02:30 52.5 °F 39.6 °F 30.1 in SSW 3 mph 5 mph 61% 0 in CLR
02:35 52.5 °F 39.6 °F 30.1 in SW 3.1 mph 4.6 mph 61% 0 in CLR
02:40 52.5 °F 39.6 °F 30.1 in SSW 2 mph 5.8 mph 61% 0 in CLR
02:45 52.5 °F 39.6 °F 30.1 in SSW 2 mph 6 mph 61% 0 in CLR
02:49 52.2 °F 39 °F 30.1 in South 4 mph 6.9 mph 61% 0 in CLR
02:55 52 °F 38.8 °F 30.1 in South 4 mph 8.1 mph 61% 0 in CLR
03:00 52.2 °F 38.7 °F 30.1 in SSW 5 mph 8 mph 60% 0 in CLR
03:05 52.2 °F 38.7 °F 30.1 in SSW 5 mph 8 mph 60% 0 in CLR
03:10 52.2 °F 38.7 °F 30.1 in SSW 5 mph 8 mph 60% 0 in CLR
03:15 52.3 °F 38.8 °F 30.1 in SSW 5 mph 9 mph 60% 0 in CLR
03:20 52.3 °F 38.8 °F 30.1 in SW 5 mph 6 mph 60% 0 in CLR
03:25 52.5 °F 39 °F 30.1 in SSE 4 mph 5.8 mph 60% 0 in CLR
03:30 52.5 °F 39 °F 30.1 in SSW 4 mph 6.9 mph 60% 0 in CLR
03:35 52.3 °F 38.8 °F 30.1 in South 5 mph 8 mph 60% 0 in CLR
03:39 52.5 °F 39 °F 30.1 in SW 4.7 mph 6.9 mph 60% 0 in CLR
03:45 52.5 °F 39 °F 30.1 in SSW 5 mph 8 mph 60% 0 in CLR
03:49 52.5 °F 39 °F 30.1 in SW 4.7 mph 6.9 mph 60% 0 in CLR
03:55 52.5 °F 39 °F 30.1 in SW 5 mph 8 mph 60% 0 in CLR
04:00 52.5 °F 39 °F 30.1 in SSW 5 mph 9 mph 60% 0 in CLR
04:05 52.5 °F 39 °F 30.1 in SSW 5 mph 9 mph 60% 0 in CLR
04:10 52.5 °F 39 °F 30.1 in SSW 6 mph 8 mph 60% 0 in CLR
04:15 52.5 °F 39 °F 30.1 in SSW 5.9 mph 5.8 mph 60% 0 in CLR
04:20 52.5 °F 38.7 °F 30.1 in SSW 5 mph 7 mph 59% 0 in CLR
04:25 52.7 °F 38.8 °F 30.1 in South 5.2 mph 8.1 mph 59% 0 in CLR
04:30 53.1 °F 39 °F 30.1 in SSW 5 mph 9 mph 59% 0 in CLR
04:34 53.2 °F 38.8 °F 30.1 in WSW 5.2 mph 8.1 mph 58% 0 in CLR
04:40 53.4 °F 39 °F 30.1 in SW 6 mph 7 mph 58% 0 in CLR
04:45 53.4 °F 39 °F 30.1 in SW 6 mph 9 mph 58% 0 in CLR
04:50 53.1 °F 38.7 °F 30.1 in SW 5 mph 9 mph 58% 0 in CLR
04:55 52.9 °F 38.5 °F 30.1 in WSW 5.2 mph 6.9 mph 58% 0 in CLR
05:00 52.9 °F 38.5 °F 30.1 in SW 6 mph 8 mph 58% 0 in CLR
05:05 52.7 °F 38.3 °F 30.1 in West 5.4 mph 6.9 mph 58% 0 in CLR
05:10 52.5 °F 38.7 °F 30.1 in WSW 5 mph 8 mph 59% 0 in CLR
05:15 52.5 °F 38.7 °F 30.1 in WSW 4.7 mph 6.9 mph 59% 0 in CLR
05:20 52.3 °F 38.5 °F 30.1 in WSW 5 mph 7 mph 59% 0 in CLR
05:25 52.2 °F 38.3 °F 30.1 in WSW 5 mph 7 mph 59% 0 in CLR
05:30 52 °F 38.1 °F 30.1 in WSW 5 mph 6 mph 59% 0 in CLR
05:35 51.8 °F 38.3 °F 30.1 in SSW 4 mph 5.8 mph 60% 0 in CLR
05:40 51.4 °F 37.9 °F 30.1 in WSW 2.4 mph 5.8 mph 60% 0 in CLR
05:45 51.3 °F 37.8 °F 30.1 in SW 2 mph 6 mph 60% 0 in CLR
05:50 51.3 °F 37.8 °F 30.1 in West 3.1 mph 4.6 mph 60% 0 in CLR
05:55 51.1 °F 37.8 °F 30.1 in WSW 3 mph 5 mph 60% 0 in CLR
06:00 50.9 °F 37.9 °F 30.1 in SW 3 mph 5 mph 61% 0 in CLR
06:05 50.4 °F 38.1 °F 30.1 in SSE 3.1 mph 4.7 mph 63% 0 in CLR
06:10 49.8 °F 38.1 °F 30.1 in SSE 3 mph 6 mph 64% 0 in CLR
06:15 49.3 °F 37.9 °F 30.1 in SSE 3.6 mph 6.9 mph 65% 0 in CLR
06:19 48.9 °F 38.1 °F 30.1 in SSW 5.2 mph 7.4 mph 66% 0 in CLR
06:25 48.9 °F 38.1 °F 30.1 in South 5 mph 7 mph 66% 0 in CLR
06:30 49.1 °F 38.1 °F 30.1 in SSW 5.2 mph 6.9 mph 66% 0 in CLR
06:35 49.5 °F 38.1 °F 30.1 in SW 5.2 mph 6.9 mph 65% 0 in CLR
06:39 49.6 °F 38.3 °F 30.1 in SW 4.7 mph 8.1 mph 65% 0 in CLR
06:45 49.8 °F 38.1 °F 30.1 in SW 5 mph 9 mph 64% 0 in CLR
06:50 50.2 °F 38.1 °F 30.1 in SW 5 mph 9 mph 63% 0 in CLR
06:55 50.4 °F 37.8 °F 30.1 in SW 5 mph 9 mph 62% 0 in CLR
07:00 50.4 °F 37.8 °F 30.1 in SW 6 mph 7 mph 62% 0 in CLR
07:05 50.4 °F 37.8 °F 30.1 in SW 5.4 mph 5.8 mph 62% 0 in CLR
07:10 50.5 °F 37.9 °F 30.1 in SSW 5 mph 7 mph 62% 0 in CLR
07:15 50.2 °F 38.1 °F 30.1 in SSW 5 mph 9 mph 63% 0 in CLR
07:20 49.8 °F 37.8 °F 30.1 in SSW 5.4 mph 9.2 mph 63% 0 in CLR
07:25 49.8 °F 37.8 °F 30.1 in South 5.4 mph 6.9 mph 63% 0 in CLR
07:30 49.6 °F 37.6 °F 30.1 in SSW 5.4 mph 6.9 mph 63% 0 in CLR
07:34 49.8 °F 37.8 °F 30.1 in SSW 5.4 mph 6.9 mph 63% 0 in CLR
07:40 50 °F 37.9 °F 30.1 in SSW 5 mph 8 mph 63% 0 in CLR
07:45 50.2 °F 37.8 °F 30.1 in SSW 5.2 mph 6.9 mph 62% 0 in CLR
07:50 50.4 °F 37.8 °F 30.1 in SSW 5.9 mph 8.1 mph 62% 0 in CLR
07:55 50.4 °F 37.8 °F 30.1 in SSW 6 mph 9 mph 62% 0 in CLR
08:00 50.7 °F 37.2 °F 30.1 in SSW 6 mph 10 mph 60% 0 in CLR
08:05 51.1 °F 37.8 °F 30.1 in SW 5.9 mph 6.9 mph 60% 0 in CLR
08:10 51.3 °F 37.4 °F 30.1 in SW 6 mph 7 mph 59% 0 in CLR
08:15 51.4 °F 37.6 °F 30.1 in SW 6 mph 6 mph 59% 0 in CLR
08:20 52 °F 37.8 °F 30.1 in SSW 4 mph 5.8 mph 58% 0 in CLR
08:25 52.2 °F 37.8 °F 30.1 in SW 5 mph 6 mph 58% 0 in CLR
08:30 52.3 °F 37.6 °F 30.1 in SW 5 mph 6 mph 57% 0 in CLR
08:35 52.7 °F 37.4 °F 30.1 in SSW 4 mph 5.8 mph 56% 0 in CLR
08:40 52.9 °F 37.6 °F 30.1 in SW 4.3 mph 5.4 mph 56% 0 in CLR
08:45 53.1 °F 37.2 °F 30.1 in SW 5 mph 9 mph 55% 0 in CLR
08:50 53.2 °F 37.6 °F 30.1 in SW 5 mph 7 mph 55% 0 in CLR
08:55 53.4 °F 37.2 °F 30.1 in West 4.3 mph 6.9 mph 54% 0 in CLR
09:00 53.4 °F 37.2 °F 30.1 in WSW 5 mph 8 mph 54% 0 in CLR
09:05 53.8 °F 37.6 °F 30.1 in WSW 4.7 mph 5.8 mph 54% 0 in CLR
09:10 54.1 °F 37.8 °F 30.1 in West 4.7 mph 6.9 mph 54% 0 in CLR
09:15 54.3 °F 37.9 °F 30.1 in WSW 4.7 mph 5.8 mph 54% 0 in CLR
09:20 54.9 °F 37.9 °F 30.1 in WSW 5 mph 7 mph 53% 0 in CLR
09:25 55.2 °F 37.9 °F 30.1 in SW 4.3 mph 8.1 mph 52% 0 in CLR
09:30 55.6 °F 38.1 °F 30.1 in WSW 5 mph 7 mph 52% 0 in CLR
09:35 55.9 °F 38.7 °F 30.1 in SW 4.7 mph 6.9 mph 52% 0 in CLR
09:40 56.3 °F 38.5 °F 30.1 in SW 5 mph 8 mph 51% 0 in CLR
09:45 56.7 °F 38.7 °F 30.1 in SSE 4.7 mph 6.9 mph 51% 0 in CLR
09:50 57.2 °F 38.7 °F 30.1 in SW 4.3 mph 6.9 mph 50% 0 in CLR
09:55 57.4 °F 38.5 °F 30.1 in SSW 5 mph 8 mph 49% 0 in CLR
10:00 57.7 °F 38.7 °F 30.1 in SW 5 mph 8 mph 49% 0 in CLR
10:05 57.9 °F 37.9 °F 30.1 in WSW 5 mph 8 mph 47% 0 in CLR
10:10 58.5 °F 38.3 °F 30.1 in NNW 3.6 mph 3.5 mph 47% 0 in CLR
10:15 58.8 °F 38.1 °F 30.1 in West 3 mph 6 mph 46% 0 in CLR
10:20 59.2 °F 37.2 °F 30.1 in West 2.9 mph 5.8 mph 44% 0 in CLR
10:25 59.4 °F 37.4 °F 30.1 in WNW 2.9 mph 3.5 mph 44% 0 in CLR
10:30 60.1 °F 38.1 °F 30.1 in SW 3.1 mph 6.9 mph 44% 0 in CLR
10:35 60.3 °F 37.8 °F 30.1 in WSW 3 mph 6 mph 43% 0 in CLR
10:39 60.6 °F 37.9 °F 30.1 in NW 3.6 mph 2.3 mph 43% 0 in CLR
10:45 61.2 °F 37.9 °F 30.1 in West 3.6 mph 5.8 mph 42% 0 in CLR
10:50 61.5 °F 37.6 °F 30.1 in West 2.4 mph 5.8 mph 41% 0 in CLR
10:55 61.9 °F 37.9 °F 30.1 in West 2 mph 5 mph 41% 0 in CLR
11:00 62.4 °F 37.8 °F 30.1 in SSW 2 mph 6 mph 40% 0 in CLR
11:05 63.1 °F 37.8 °F 30.1 in WNW 2.9 mph 5.8 mph 39% 0 in CLR
11:10 63.3 °F 37.9 °F 30.1 in WNW 2 mph 5 mph 39% 0 in CLR
11:15 64.2 °F 38.1 °F 30.1 in NNE 2.4 mph 3.5 mph 38% 0 in CLR
11:20 64.9 °F 37.9 °F 30.1 in NW 1.8 mph 4.6 mph 37% 0 in CLR
11:25 64.9 °F 38.1 °F 30.1 in NNW 2 mph 5 mph 37% 0 in CLR
11:30 65.7 °F 37.9 °F 30.1 in NNW 2 mph 6 mph 36% 0 in CLR
11:35 65.8 °F 38.1 °F 30.1 in ESE 2 mph 6 mph 36% 0 in CLR
11:40 65.8 °F 38.1 °F 30.1 in SSE 3 mph 5 mph 36% 0 in CLR
11:45 66.2 °F 38.5 °F 30.1 in NE 3.1 mph 4.6 mph 36% 0 in CLR
11:49 66.4 °F 38.7 °F 30.1 in East 2.9 mph 4.6 mph 36% 0 in CLR
11:55 66.7 °F 38.1 °F 30.1 in East 2 mph 9 mph 35% 0 in CLR
12:00 66.6 °F 38.8 °F 30.1 in ENE 5 mph 9 mph 36% 0 in CLR
12:05 66.6 °F 39.6 °F 30.1 in North 4 mph 8.1 mph 37% 0 in CLR
12:10 66.6 °F 39.6 °F 30.1 in NNE 5 mph 11 mph 37% 0 in CLR
12:15 66.6 °F 39.6 °F 30.1 in NE 4.7 mph 2.3 mph 37% 0 in CLR
12:20 66.9 °F 39.9 °F 30.1 in NNE 5 mph 7 mph 37% 0 in CLR
12:25 67.5 °F 40.3 °F 30.1 in NW 4 mph 9.2 mph 37% 0 in CLR
12:30 67.5 °F 41 °F 30.1 in North 5 mph 10 mph 38% 0 in CLR
12:35 67.6 °F 40.5 °F 30.1 in NNE 5 mph 12 mph 37% 0 in CLR
12:40 67.6 °F 40.5 °F 30.1 in NE 5.9 mph 5.8 mph 37% 0 in CLR
12:45 67.5 °F 40.3 °F 30.1 in ENE 6 mph 9 mph 37% 0 in CLR
12:50 68.2 °F 40.8 °F 30.1 in NE 5.2 mph 5.8 mph 37% 0 in CLR
12:55 68.4 °F 41.2 °F 30.1 in ENE 5 mph 9 mph 37% 0 in CLR
13:00 68.5 °F 40.5 °F 30.1 in NE 5 mph 7 mph 36% 0 in CLR
13:05 69.3 °F 41.2 °F 30.1 in ENE 4 mph 8.1 mph 36% 0 in CLR
13:10 69.3 °F 41.2 °F 30.1 in North 5 mph 9 mph 36% 0 in CLR
13:15 69.6 °F 40.6 °F 30.1 in NNE 5 mph 7 mph 35% 0 in CLR
13:20 70 °F 40.3 °F 30.1 in ENE 3 mph 8 mph 34% 0 in CLR
13:25 70.2 °F 40.5 °F 30.1 in NE 3.6 mph 7.4 mph 34% 0 in CLR
13:30 70 °F 39.6 °F 30.1 in NNE 6 mph 13 mph 33% 0 in CLR
13:35 69.6 °F 39.9 °F 30.1 in ENE 6 mph 9 mph 34% 0 in CLR
13:40 70 °F 40.3 °F 30.1 in NE 5.2 mph 11.8 mph 34% 0 in CLR
13:45 70 °F 40.3 °F 30.1 in NE 5.2 mph 10.4 mph 34% 0 in CLR
13:50 70.3 °F 41.4 °F 30 in NE 7 mph 12 mph 35% 0 in CLR
13:54 70.2 °F 40.5 °F 30 in NNE 6.4 mph 8.1 mph 34% 0 in CLR
13:58 70.3 °F 40.6 °F 30 in NE 7.4 mph 11.5 mph 34% 0 in CLR
14:03 70.7 °F 40.3 °F 30 in North 7.4 mph 9.2 mph 33% 0 in CLR
14:08 70.5 °F 39.9 °F 30 in NE 5.4 mph 9.2 mph 33% 0 in CLR
14:13 70.2 °F 39.7 °F 30 in WNW 5.4 mph 6.9 mph 33% 0 in CLR
14:17 70.7 °F 39.4 °F 30 in ESE 5.4 mph 10.4 mph 32% 0 in CLR
14:22 71.1 °F 40.5 °F 30 in ENE 5.2 mph 12.7 mph 33% 0 in CLR
14:26 71.2 °F 39.9 °F 30 in ENE 5.2 mph 6.9 mph 32% 0 in CLR
14:31 71.4 °F 40.8 °F 30 in NNE 6.2 mph 13.8 mph 33% 0 in CLR
14:36 71.2 °F 39.9 °F 30 in North 6.2 mph 9.2 mph 32% 0 in CLR
14:42 71.2 °F 39.9 °F 30 in NNW 6.4 mph 11.5 mph 32% 0 in CLR
14:46 71.4 °F 39.2 °F 30 in NE 6.4 mph 9.2 mph 31% 0 in CLR
14:51 71.8 °F 39.6 °F 30 in NNE 6.4 mph 10.4 mph 31% 0 in CLR
14:56 71.8 °F 39.6 °F 30 in NNE 6.4 mph 10.4 mph 31% 0 in CLR
15:00 71.6 °F 39.4 °F 30 in NE 7 mph 10 mph 31% 0 in CLR
15:05 72 °F 38.8 °F 30 in East 7.4 mph 9.2 mph 30% 0 in CLR
15:10 72 °F 38.8 °F 30 in ENE 5.9 mph 6.9 mph 30% 0 in CLR
15:15 72 °F 38.8 °F 30 in NNW 5.9 mph 10.4 mph 30% 0 in CLR
15:20 72 °F 38.8 °F 30 in NE 5.9 mph 12.7 mph 30% 0 in CLR
15:25 71.6 °F 38.5 °F 30 in NE 5.9 mph 11.5 mph 30% 0 in CLR
15:29 71.8 °F 38.7 °F 30 in East 6.9 mph 11.5 mph 30% 0 in CLR
15:34 72 °F 37.9 °F 30 in NNE 6.9 mph 8.1 mph 29% 0 in CLR
15:39 72 °F 37.9 °F 30 in ENE 6.4 mph 9.2 mph 29% 0 in CLR
15:45 71.8 °F 37.8 °F 30 in ESE 6.4 mph 9.2 mph 29% 0 in CLR
15:49 71.8 °F 37.8 °F 30 in NNE 6.9 mph 12.7 mph 29% 0 in CLR
15:54 71.8 °F 37.8 °F 30 in ENE 6.9 mph 8.1 mph 29% 0 in CLR
15:59 72 °F 37.9 °F 30 in ENE 6.9 mph 9.2 mph 29% 0 in CLR
16:03 72 °F 37 °F 30 in NE 6.9 mph 12.7 mph 28% 0 in CLR
16:08 71.4 °F 37.6 °F 30 in NE 7.6 mph 10.4 mph 29% 0 in CLR
16:14 71.2 °F 37.2 °F 30 in East 7.6 mph 9.2 mph 29% 0 in CLR
16:18 71.4 °F 36.7 °F 30 in ENE 6.4 mph 11.5 mph 28% 0 in CLR
16:23 71.6 °F 36.9 °F 30 in NE 6.4 mph 12.7 mph 28% 0 in CLR
16:28 71.4 °F 36.7 °F 30 in ENE 7.6 mph 12.5 mph 28% 0 in CLR
16:32 71.2 °F 36.3 °F 30 in NE 7.6 mph 14 mph 28% 0 in CLR
16:37 71.1 °F 37.2 °F 30 in NNE 7.6 mph 10.7 mph 29% 0 in CLR
16:41 71.1 °F 37.2 °F 30 in NE 8.7 mph 13.8 mph 29% 0 in CLR
16:46 70.9 °F 37 °F 30 in NE 8.7 mph 10.4 mph 29% 0 in CLR
16:51 70.9 °F 36.1 °F 30 in East 8.5 mph 15 mph 28% 0 in CLR
16:55 70.7 °F 36 °F 30 in NE 8.5 mph 15 mph 28% 0 in CLR
17:00 70.5 °F 35.8 °F 30 in NE 9 mph 16 mph 28% 0 in CLR
17:05 70.5 °F 35.8 °F 30 in NE 9 mph 16 mph 28% 0 in CLR
17:09 70.2 °F 36.3 °F 30 in NE 10 mph 14.7 mph 29% 0 in CLR
17:14 70 °F 37 °F 30 in NE 10 mph 12.7 mph 30% 0 in CLR
17:20 70 °F 37 °F 30 in NE 10.7 mph 16.1 mph 30% 0 in CLR
17:24 69.6 °F 34.2 °F 30 in NNE 10.7 mph 12.7 mph 27% 0 in CLR
17:29 69.6 °F 33.3 °F 30 in NNE 8.7 mph 17.3 mph 26% 0 in CLR
17:33 69.4 °F 34 °F 30 in NNW 8.7 mph 13.8 mph 27% 0 in CLR
17:38 69.4 °F 34 °F 30 in East 8.1 mph 9.2 mph 27% 0 in CLR
17:43 69.3 °F 33.8 °F 30 in NW 8.1 mph 10.4 mph 27% 0 in CLR
17:47 68.9 °F 35.2 °F 30 in NNE 8.1 mph 13.8 mph 29% 0 in CLR
17:52 68.7 °F 35.2 °F 30 in NNE 7.6 mph 12.7 mph 29% 0 in CLR
17:56 68.5 °F 36 °F 30 in NNE 7.6 mph 15 mph 30% 0 in CLR
18:01 68.2 °F 35.4 °F 30 in North 8.1 mph 16.1 mph 30% 0 in CLR
18:06 68 °F 35.4 °F 30 in NE 8.1 mph 13.7 mph 30% 0 in CLR
18:11 67.8 °F 34.3 °F 30 in NNE 7.6 mph 13.8 mph 29% 0 in CLR
18:15 67.8 °F 34.3 °F 30 in NE 7.6 mph 11.5 mph 29% 0 in CLR
18:20 67.6 °F 36 °F 30 in ENE 7.6 mph 15.6 mph 31% 0 in CLR
18:25 67.3 °F 36.3 °F 30 in ENE 7.6 mph 10.4 mph 32% 0 in CLR
18:30 67.3 °F 36.3 °F 30 in NE 9.2 mph 9.2 mph 32% 0 in CLR
18:35 67.3 °F 36.3 °F 30 in NE 9 mph 13 mph 32% 0 in CLR
18:39 66.9 °F 36.1 °F 30 in NE 7.4 mph 10.4 mph 32% 0 in CLR
18:44 66.9 °F 36.1 °F 30 in ENE 7.4 mph 11.5 mph 32% 0 in CLR
18:48 66.6 °F 36.5 °F 30 in NE 7.6 mph 9.2 mph 33% 0 in CLR
18:53 66.4 °F 36.3 °F 30 in ENE 7.6 mph 11.8 mph 33% 0 in CLR
18:58 66 °F 36.1 °F 30 in NE 7.6 mph 11.5 mph 33% 0 in CLR
19:02 65.8 °F 36.7 °F 30 in NE 7.6 mph 10.4 mph 34% 0 in CLR
19:07 65.7 °F 36.5 °F 30 in NE 7.6 mph 10.4 mph 34% 0 in CLR
19:12 65.1 °F 36.9 °F 30 in NE 6.9 mph 10.4 mph 35% 0 in CLR
19:16 64.9 °F 36.7 °F 30 in ENE 6.9 mph 9.2 mph 35% 0 in CLR
19:21 64.8 °F 37.2 °F 30 in NE 6.9 mph 10.4 mph 36% 0 in CLR
19:25 64.6 °F 37 °F 30 in NE 6.9 mph 6.9 mph 36% 0 in CLR
19:30 64.2 °F 38.1 °F 30 in NNE 6.4 mph 8.1 mph 38% 0 in CLR
19:35 63.9 °F 37.8 °F 30 in NE 7 mph 9 mph 38% 0 in CLR
19:39 63.3 °F 37.9 °F 30 in NNE 5.9 mph 8.1 mph 39% 0 in CLR
19:44 63 °F 38.1 °F 30 in NE 5.9 mph 9.2 mph 40% 0 in CLR
19:49 62.6 °F 37.9 °F 30 in NNE 6.4 mph 10.4 mph 40% 0 in CLR
19:53 62.2 °F 38.1 °F 30 in NNE 6.4 mph 9.2 mph 41% 0 in CLR
19:58 62.1 °F 38.7 °F 30 in NE 6.9 mph 11.5 mph 42% 0 in CLR
20:02 61.9 °F 39 °F 30 in NE 6.9 mph 9.2 mph 43% 0 in CLR
20:07 61.5 °F 39.4 °F 30 in NNE 6.9 mph 8.1 mph 44% 0 in CLR
20:11 61.3 °F 40.5 °F 30 in NNE 6.2 mph 11.5 mph 46% 0 in CLR
20:16 61 °F 39.9 °F 30 in NE 6.2 mph 8.1 mph 46% 0 in CLR
20:22 60.6 °F 40.8 °F 30 in NE 6.2 mph 9.2 mph 48% 0 in CLR
20:26 60.6 °F 41.4 °F 30 in NNE 6.2 mph 10.4 mph 49% 0 in CLR
20:31 60.4 °F 41.7 °F 30 in ENE 6.4 mph 10.4 mph 50% 0 in CLR
20:36 60.4 °F 42.3 °F 30 in NE 6.4 mph 9.2 mph 51% 0 in CLR
20:40 60.3 °F 42.6 °F 30 in NE 6.4 mph 9.2 mph 52% 0 in CLR
20:45 60.1 °F 42.4 °F 30 in NE 6.4 mph 9.7 mph 52% 0 in CLR
20:50 59.7 °F 43 °F 30 in ENE 6.9 mph 12.7 mph 54% 0 in CLR
20:54 59.7 °F 43.5 °F 30 in ENE 6.9 mph 12.7 mph 55% 0 in CLR
20:59 59.7 °F 43.5 °F 30 in NE 7.6 mph 10.4 mph 55% 0 in CLR
21:03 59.7 °F 43.5 °F 30 in NE 7.6 mph 6.9 mph 55% 0 in CLR
21:08 59.5 °F 43.3 °F 30 in NE 5.2 mph 4.6 mph 55% 0 in CLR
21:16 59.5 °F 43.3 °F 30 in ENE 5.2 mph 3.5 mph 55% 0 in CLR
21:24 59.4 °F 43.2 °F 30 in NE 2.9 mph 4.6 mph 55% 0 in CLR
21:32 59.2 °F 43 °F 30 in NE 2.9 mph 4.6 mph 55% 0 in CLR
21:40 58.8 °F 43.2 °F 30 in NNE 2.9 mph 5.4 mph 56% 0 in CLR
21:49 58.3 °F 43.2 °F 30 in NNE 3.1 mph 4.6 mph 57% 0 in CLR
21:58 57.7 °F 43.5 °F 30 in NNE 2.4 mph 4.6 mph 59% 0 in CLR
22:06 57.4 °F 43.5 °F 30 in NNE 2.4 mph 4.6 mph 60% 0 in CLR
22:15 57 °F 43.7 °F 30 in NNE 3.1 mph 2.4 mph 61% 0 in CLR
22:23 56.8 °F 44.1 °F 30 in NNE 1.8 mph 4.6 mph 62% 0 in CLR
22:29 56.5 °F 44.1 °F 30 in NNW 2.4 mph 4.6 mph 63% 0 in CLR
22:34 56.5 °F 44.1 °F 30 in NNE 2.4 mph 4.6 mph 63% 0 in CLR
22:39 56.3 °F 44.2 °F 30 in NNE 2 mph 2.4 mph 64% 0 in CLR
22:44 56.1 °F 44.1 °F 30 in NNE 2 mph 3.5 mph 64% 0 in CLR
22:50 56.1 °F 44.4 °F 30 in NNE 2 mph 2.3 mph 65% 0 in CLR
22:55 56.1 °F 44.4 °F 30 in NNE 2 mph 5 mph 65% 0 in CLR
23:00 55.9 °F 44.4 °F 30 in NE 2 mph 5 mph 65% 0 in CLR
23:05 55.9 °F 44.2 °F 30 in NE 2 mph 5 mph 65% 0 in CLR
23:10 55.8 °F 44.2 °F 30 in NE 3.1 mph 4.6 mph 65% 0 in CLR
23:15 55.6 °F 44.1 °F 30 in NE 3.1 mph 4.6 mph 65% 0 in CLR
23:20 55.2 °F 44.1 °F 30 in NE 2 mph   66% 0 in CLR
23:25 55 °F 43.9 °F 30 in NE 2 mph 2.3 mph 66% 0 in CLR
23:30 54.9 °F 43.7 °F 30 in Calm   2.3 mph 66% 0 in CLR
23:35 54.7 °F 43.5 °F 30 in Calm     66% 0 in CLR
23:40 54.7 °F 43.5 °F 30 in Calm     66% 0 in CLR
23:45 54.5 °F 40.5 °F 30 in Calm     59% 0 in CLR
23:50 54.5 °F 43 °F 30 in Calm     65% 0 in CLR
23:55 54.3 °F 43.2 °F 30 in Calm     66% 0 in CLR
Murcia-Puente Tocinos, España
Compliments of Weather Underground - 2.75 mb

La estación de MeteoMurcia.com, publica sus datos en los siguientes proyectos:

Weather Underground PWS IMURCIAP2 Meteoclimatic www.awekas.at

W3Counter
Web Analytics